Starlink 31080

operational
NORAD ID: 58603 Int'l Des: 2023-200 Owner: SPXS Country: US Constellation: starlink
LEOCIRCULAR

Über Starlink 31080

Beschreibung wird geladen...

Live-Position

3D-Globus wird geladen...

Nächste Überflüge

Höhenverlauf

Altitude vs Time

uPlot chart will show altitude changes over time

Zweizeiliger Elementsatz

1 58603U 23200Q 26095.49281142 .00001510 00000-0 65962-4 0 9991
2 58603 43.0013 17.1631 0000650 263.9169 96.1608 15.26734714127528
Epoch: 5. Apr. 2026 • Age: 8 hours

Aktueller Status

Höhe 497.8 km
Geschwindigkeit 7.62 km/s
Subsatellitenpunkt -41.44°S, 179.27°W
Startdatum 19. Dez. 2023
Alter 2.2 years
Typ internet

Technische Details

Klassifizierung Payload
Masse 730.00 kg
Trockenmasse 700.00 kg
Gesamtmasse 730.00 kg
Länge 0.30 m
Durchmesser 4.10 m
Spannweite 29.00 m
Form Box + pan
Hersteller SPXS
Bus-Typ Starlink V2M
Phasenstatus In Orbit
Besitzer/Staat SPXS/US

Große Konstellationen

Loading constellations...